| time (UTC) | temp C | wind direction | speed KPH | gust KPH | rain 1hr cm | rain 24hr cm | rain mn cm | humidity % | barometer mb |
| 20260509024305 | 17 | 55 | 6.4 | 19.3 | 0.00 | 0.00 | 0.00 | 62 | 1028.7 |
| 20260509023305 | 16 | 357 | 9.7 | 19.3 | 0.00 | 0.00 | 0.00 | 62 | 1028.7 |
| 20260509022805 | 16 | 48 | 8.0 | 20.9 | 0.00 | 0.00 | 0.00 | 63 | 1028.7 |
| 20260509022306 | 16 | 355 | 8.0 | 20.9 | 0.00 | 0.00 | 0.00 | 63 | 1028.8 |
| 20260509021806 | 16 | 23 | 8.0 | 12.9 | 0.00 | 0.00 | 0.00 | 63 | 1028.8 |
| 20260509020805 | 16 | 6 | 9.7 | 16.1 | 0.00 | 0.00 | 0.00 | 63 | 1028.8 |
| 20260509020305 | 16 | 38 | 4.8 | 19.3 | 0.00 | 0.00 | 0.00 | 63 | 1028.9 |
| 20260509015805 | 16 | 35 | 12.9 | 22.5 | 0.00 | 0.00 | 0.00 | 64 | 1028.8 |
| 20260509015306 | 16 | 21 | 4.8 | 20.9 | 0.00 | 0.00 | 0.00 | 65 | 1028.8 |
| 20260509014805 | 15 | 42 | 14.5 | 24.1 | 0.00 | 0.00 | 0.00 | 64 | 1028.8 |
| 20260509014306 | 15 | 42 | 9.7 | 27.4 | 0.00 | 0.00 | 0.00 | 65 | 1028.9 |
| 20260509013805 | 15 | 43 | 16.1 | 32.2 | 0.00 | 0.00 | 0.00 | 64 | 1028.9 |
| 20260509013305 | 15 | 40 | 9.7 | 20.9 | 0.00 | 0.00 | 0.00 | 66 | 1029.0 |
| 20260509012804 | 15 | 41 | 8.0 | 19.3 | 0.00 | 0.00 | 0.00 | 66 | 1029.0 |
| 20260509012307 | 15 | 354 | 8.0 | 19.3 | 0.00 | 0.00 | 0.00 | 66 | 1029.1 |
| 20260509011805 | 15 | 7 | 8.0 | 16.1 | 0.00 | 0.00 | 0.00 | 66 | 1029.0 |
| 20260509011305 | 15 | 43 | 8.0 | 20.9 | 0.00 | 0.00 | 0.00 | 67 | 1028.9 |
| 20260509010805 | 14 | 3 | 9.7 | 19.3 | 0.00 | 0.00 | 0.00 | 67 | 1028.9 |
| 20260509005804 | 14 | 4 | 8.0 | 19.3 | 0.00 | 0.00 | 0.00 | 68 | 1029.0 |
| 20260509005306 | 13 | 23 | 8.0 | 22.5 | 0.00 | 0.00 | 0.00 | 68 | 1029.0 |
| 20260509003304 | 13 | 44 | 12.9 | 27.4 | 0.00 | 0.00 | 0.00 | 70 | 1028.7 |
| 20260509002805 | 13 | 17 | 12.9 | 24.1 | 0.00 | 0.00 | 0.00 | 69 | 1028.7 |
| 20260509002306 | 13 | 38 | 14.5 | 24.1 | 0.00 | 0.00 | 0.00 | 70 | 1028.7 |
| 20260509001306 | 13 | 27 | 9.7 | 33.8 | 0.00 | 0.00 | 0.00 | 70 | 1028.7 |
| 20260509000305 | 12 | 46 | 11.3 | 22.5 | 0.00 | 0.00 | 0.00 | 71 | 1028.7 |
| 20260508235805 | 12 | 42 | 8.0 | 19.3 | 0.00 | 0.00 | 0.00 | 72 | 1028.7 |
| 20260508235306 | 12 | 43 | 12.9 | 19.3 | 0.00 | 0.00 | 0.00 | 71 | 1028.7 |
| 20260508234804 | 12 | 28 | 9.7 | 32.2 | 0.00 | 0.00 | 0.00 | 72 | 1028.7 |
| 20260508234305 | 12 | 52 | 11.3 | 24.1 | 0.00 | 0.00 | 0.00 | 72 | 1028.7 |
| 20260508233805 | 12 | 49 | 12.9 | 27.4 | 0.00 | 0.00 | 0.00 | 72 | 1028.7 |
| 20260508233304 | 12 | 47 | 14.5 | 25.7 | 0.00 | 0.00 | 0.00 | 72 | 1028.7 |
| 20260508232804 | 12 | 29 | 11.3 | 24.1 | 0.00 | 0.00 | 0.00 | 72 | 1028.7 |
| 20260508232307 | 12 | 27 | 8.0 | 27.4 | 0.00 | 0.00 | 0.00 | 72 | 1028.7 |
| 20260508231304 | 12 | 47 | 9.7 | 25.7 | 0.00 | 0.00 | 0.00 | 73 | 1028.7 |
| 20260508230805 | 12 | 36 | 9.7 | 16.1 | 0.00 | 0.00 | 0.00 | 73 | 1028.7 |
| 20260508230304 | 12 | 31 | 9.7 | 22.5 | 0.00 | 0.00 | 0.00 | 73 | 1028.7 |
| 20260508224805 | 12 | 26 | 11.3 | 24.1 | 0.00 | 0.00 | 0.00 | 73 | 1028.3 |
| 20260508224305 | 12 | 41 | 4.8 | 16.1 | 0.00 | 0.00 | 0.00 | 73 | 1028.3 |
| 20260508223804 | 12 | 31 | 4.8 | 11.3 | 0.00 | 0.00 | 0.00 | 73 | 1028.3 |
| 20260508223305 | 12 | 43 | 9.7 | 14.5 | 0.00 | 0.00 | 0.00 | 73 | 1028.3 |
| 20260508222804 | 12 | 41 | 9.7 | 20.9 | 0.00 | 0.00 | 0.00 | 73 | 1028.3 |
| 20260508222306 | 12 | 30 | 9.7 | 16.1 | 0.00 | 0.00 | 0.00 | 72 | 1028.1 |
| 20260508221804 | 12 | 31 | 6.4 | 19.3 | 0.00 | 0.00 | 0.00 | 72 | 1028.1 |
| 20260508221305 | 12 | 29 | 6.4 | 20.9 | 0.00 | 0.00 | 0.00 | 72 | 1028.1 |
| 20260508220805 | 12 | 24 | 8.0 | 12.9 | 0.00 | 0.00 | 0.00 | 72 | 1028.1 |
| 20260508220304 | 12 | 24 | 8.0 | 16.1 | 0.00 | 0.00 | 0.00 | 72 | 1028.1 |
| 20260508215805 | 12 | 42 | 8.0 | 19.3 | 0.00 | 0.00 | 0.00 | 71 | 1028.1 |
| 20260508215306 | 12 | 28 | 8.0 | 19.3 | 0.00 | 0.00 | 0.00 | 71 | 1028.1 |
| 20260508214805 | 12 | 26 | 6.4 | 14.5 | 0.00 | 0.00 | 0.00 | 71 | 1028.1 |
| 20260508214304 | 12 | 32 | 11.3 | 24.1 | 0.00 | 0.00 | 0.00 | 71 | 1028.1 |
| 20260508213805 | 12 | 28 | 8.0 | 19.3 | 0.00 | 0.00 | 0.00 | 70 | 1028.1 |
| 20260508213305 | 12 | 18 | 8.0 | 19.3 | 0.00 | 0.00 | 0.00 | 70 | 1028.1 |
| 20260508212306 | 12 | 37 | 8.0 | 14.5 | 0.00 | 0.00 | 0.00 | 70 | 1028.1 |
| 20260508211805 | 13 | 38 | 12.9 | 22.5 | 0.00 | 0.00 | 0.00 | 70 | 1028.1 |
| 20260508211306 | 12 | 47 | 8.0 | 19.3 | 0.00 | 0.00 | 0.00 | 70 | 1027.8 |
| 20260508210806 | 13 | 43 | 9.7 | 22.5 | 0.00 | 0.00 | 0.00 | 70 | 1027.8 |
| 20260508210304 | 13 | 52 | 8.0 | 12.9 | 0.00 | 0.00 | 0.00 | 69 | 1027.8 |
| 20260508205805 | 13 | 45 | 9.7 | 19.3 | 0.00 | 0.00 | 0.00 | 69 | 1027.8 |
| 20260508205306 | 13 | 17 | 11.3 | 24.1 | 0.00 | 0.00 | 0.00 | 69 | 1027.8 |
| 20260508204805 | 13 | 34 | 8.0 | 19.3 | 0.00 | 0.00 | 0.00 | 69 | 1027.8 |
| 20260508204305 | 13 | 22 | 8.0 | 16.1 | 0.00 | 0.00 | 0.00 | 69 | 1027.7 |
| 20260508202805 | 13 | 38 | 8.0 | 20.9 | 0.00 | 0.00 | 0.00 | 69 | 1027.7 |
| 20260508202307 | 13 | 36 | 8.0 | 20.9 | 0.00 | 0.00 | 0.00 | 69 | 1027.7 |
| 20260508201305 | 13 | 16 | 9.7 | 16.1 | 0.00 | 0.00 | 0.00 | 69 | 1027.6 |
| 20260508200806 | 13 | 46 | 8.0 | 16.1 | 0.00 | 0.00 | 0.00 | 68 | 1027.6 |
| 20260508200305 | 13 | 42 | 8.0 | 19.3 | 0.00 | 0.00 | 0.00 | 68 | 1027.7 |
| 20260508195805 | 13 | 29 | 8.0 | 19.3 | 0.00 | 0.00 | 0.00 | 68 | 1027.7 |
| 20260508195306 | 13 | 30 | 11.3 | 27.4 | 0.00 | 0.00 | 0.00 | 68 | 1027.7 |
| 20260508194805 | 13 | 49 | 9.7 | 19.3 | 0.00 | 0.00 | 0.00 | 68 | 1027.7 |
| 20260508193806 | 13 | 30 | 8.0 | 16.1 | 0.00 | 0.00 | 0.00 | 68 | 1027.7 |
| 20260508191805 | 13 | 36 | 9.7 | 19.3 | 0.00 | 0.00 | 0.00 | 68 | 1027.7 |
| 20260508191305 | 13 | 31 | 8.0 | 19.3 | 0.00 | 0.00 | 0.00 | 68 | 1027.7 |
| 20260508190806 | 13 | 53 | 9.7 | 19.3 | 0.00 | 0.00 | 0.00 | 68 | 1027.7 |
| 20260508190305 | 13 | 48 | 8.0 | 22.5 | 0.00 | 0.00 | 0.00 | 68 | 1027.7 |
| 20260508185805 | 13 | 6 | 6.4 | 14.5 | 0.00 | 0.00 | 0.00 | 68 | 1027.7 |
| 20260508185306 | 13 | 58 | 9.7 | 20.9 | 0.00 | 0.00 | 0.00 | 67 | 1027.7 |
| 20260508184804 | 13 | 19 | 6.4 | 19.3 | 0.00 | 0.00 | 0.00 | 67 | 1027.7 |
| 20260508184305 | 14 | 48 | 8.0 | 19.3 | 0.00 | 0.00 | 0.00 | 67 | 1027.7 |
| 20260508183805 | 14 | 33 | 6.4 | 19.3 | 0.00 | 0.00 | 0.00 | 67 | 1027.7 |
| 20260508183306 | 14 | 53 | 11.3 | 24.1 | 0.00 | 0.00 | 0.00 | 67 | 1027.7 |
| 20260508182804 | 14 | 33 | 8.0 | 14.5 | 0.00 | 0.00 | 0.00 | 67 | 1027.7 |
| 20260508181805 | 14 | 61 | 8.0 | 16.1 | 0.00 | 0.00 | 0.00 | 67 | 1027.7 |
| 20260508180306 | 14 | 41 | 4.8 | 22.5 | 0.00 | 0.00 | 0.00 | 66 | 1027.7 |
| 20260508175804 | 14 | 49 | 8.0 | 20.9 | 0.00 | 0.00 | 0.00 | 66 | 1027.7 |
| 20260508175306 | 14 | 32 | 9.7 | 19.3 | 0.00 | 0.00 | 0.00 | 66 | 1027.7 |
| 20260508174805 | 14 | 35 | 8.0 | 16.1 | 0.00 | 0.00 | 0.00 | 66 | 1027.7 |
| 20260508172804 | 14 | 26 | 6.4 | 14.5 | 0.00 | 0.00 | 0.00 | 67 | 1027.7 |
| 20260508172307 | 14 | 39 | 6.4 | 12.9 | 0.00 | 0.00 | 0.00 | 67 | 1027.7 |
| 20260508171805 | 14 | 48 | 4.8 | 11.3 | 0.00 | 0.00 | 0.00 | 67 | 1027.7 |
| 20260508171305 | 14 | 61 | 11.3 | 20.9 | 0.00 | 0.00 | 0.00 | 66 | 1027.7 |
| 20260508164805 | 15 | 49 | 9.7 | 25.7 | 0.00 | 0.00 | 0.00 | 66 | 1027.8 |
| 20260508163805 | 15 | 44 | 8.0 | 22.5 | 0.00 | 0.00 | 0.00 | 66 | 1027.8 |
| 20260508163304 | 15 | 70 | 8.0 | 22.5 | 0.00 | 0.00 | 0.00 | 66 | 1027.8 |
| 20260508161805 | 15 | 52 | 9.7 | 20.9 | 0.00 | 0.00 | 0.00 | 65 | 1027.8 |
| 20260508161305 | 15 | 53 | 8.0 | 19.3 | 0.00 | 0.00 | 0.00 | 65 | 1027.8 |
| 20260508160305 | 15 | 56 | 9.7 | 19.3 | 0.00 | 0.00 | 0.00 | 64 | 1027.8 |
| 20260508155805 | 15 | 53 | 9.7 | 19.3 | 0.00 | 0.00 | 0.00 | 64 | 1027.8 |
| 20260508155306 | 15 | 42 | 6.4 | 14.5 | 0.00 | 0.00 | 0.00 | 64 | 1027.8 |
| 20260508154305 | 15 | 51 | 8.0 | 20.9 | 0.00 | 0.00 | 0.00 | 64 | 1027.8 |
| 20260508153805 | 15 | 61 | 6.4 | 20.9 | 0.00 | 0.00 | 0.00 | 65 | 1027.8 |
| 20260508153304 | 15 | 63 | 4.8 | 11.3 | 0.00 | 0.00 | 0.00 | 65 | 1027.9 |
| 20260508152306 | 15 | 31 | 8.0 | 14.5 | 0.00 | 0.00 | 0.00 | 65 | 1028.0 |
| 20260508151804 | 15 | 32 | 6.4 | 12.9 | 0.00 | 0.00 | 0.00 | 66 | 1028.0 |
| 20260508151305 | 15 | 32 | 4.8 | 11.3 | 0.00 | 0.00 | 0.00 | 67 | 1028.0 |
| 20260508150805 | 15 | 51 | 4.8 | 9.7 | 0.00 | 0.00 | 0.00 | 67 | 1028.0 |
| 20260508145805 | 15 | 60 | 3.2 | 14.5 | 0.00 | 0.00 | 0.00 | 70 | 1028.0 |
| 20260508145306 | 15 | 37 | 4.8 | 8.0 | 0.00 | 0.00 | 0.00 | 71 | 1028.3 |
| 20260508144805 | 14 | 37 | 4.8 | 11.3 | 0.00 | 0.00 | 0.00 | 72 | 1028.3 |
| 20260508144304 | 13 | 34 | 4.8 | 11.3 | 0.00 | 0.00 | 0.00 | 73 | 1028.3 |
| 20260508143805 | 13 | 43 | 4.8 | 11.3 | 0.00 | 0.00 | 0.00 | 74 | 1028.3 |
| 20260508143305 | 13 | 16 | 6.4 | 12.9 | 0.00 | 0.00 | 0.00 | 76 | 1028.3 |
| 20260508142804 | 12 | 44 | 3.2 | 8.0 | 0.00 | 0.00 | 0.00 | 78 | 1028.3 |
| 20260508142307 | 12 | 44 | 1.6 | 4.8 | 0.00 | 0.00 | 0.00 | 78 | 1028.3 |
| 20260508141805 | 12 | 327 | 0.0 | 3.2 | 0.00 | 0.00 | 0.00 | 79 | 1028.3 |
| 20260508141304 | 12 | 323 | 0.0 | 3.2 | 0.00 | 0.00 | 0.00 | 80 | 1028.3 |
| 20260508140805 | 12 | 281 | 1.6 | 3.2 | 0.00 | 0.00 | 0.00 | 81 | 1028.3 |
| 20260508135805 | 11 | 53 | 3.2 | 11.3 | 0.00 | 0.00 | 0.00 | 84 | 1028.1 |
| 20260508135306 | 11 | 44 | 3.2 | 4.8 | 0.00 | 0.00 | 0.00 | 85 | 1028.1 |
| 20260508134304 | 11 | 83 | 3.2 | 4.8 | 0.00 | 0.00 | 0.00 | 87 | 1028.1 |
| 20260508133805 | 10 | 2 | 1.6 | 9.7 | 0.00 | 0.00 | 0.00 | 87 | 1028.1 |
| 20260508133304 | 10 | 301 | 0.0 | 4.8 | 0.00 | 0.00 | 0.00 | 87 | 1027.9 |
| 20260508132805 | 10 | 278 | 1.6 | 3.2 | 0.00 | 0.00 | 0.00 | 87 | 1027.9 |
| 20260508132306 | 10 | 359 | 0.0 | 1.6 | 0.00 | 0.00 | 0.00 | 87 | 1027.9 |
| 20260508131804 | 10 | 359 | 0.0 | 1.6 | 0.00 | 0.00 | 0.00 | 87 | 1027.9 |
| 20260508131305 | 10 | 287 | 0.0 | 0.0 | 0.00 | 0.00 | 0.00 | 87 | 1027.9 |
| 20260508130805 | 10 | 287 | 1.6 | 3.2 | 0.00 | 0.00 | 0.00 | 87 | 1027.9 |
| 20260508130304 | 11 | 287 | 1.6 | 3.2 | 0.00 | 0.00 | 0.00 | 87 | 1027.9 |
| 20260508125805 | 11 | 287 | 0.0 | 3.2 | 0.00 | 0.00 | 0.00 | 87 | 1027.9 |
| 20260508125306 | 11 | 287 | 1.6 | 4.8 | 0.00 | 0.00 | 0.00 | 86 | 1027.9 |
| 20260508124804 | 11 | 289 | 1.6 | 3.2 | 0.00 | 0.00 | 0.00 | 86 | 1027.9 |
| 20260508124305 | 11 | 289 | 1.6 | 3.2 | 0.00 | 0.00 | 0.00 | 86 | 1027.9 |
| 20260508123805 | 11 | 352 | 0.0 | 1.6 | 0.00 | 0.00 | 0.00 | 85 | 1027.9 |
| 20260508123305 | 11 | 352 | 0.0 | 1.6 | 0.00 | 0.00 | 0.00 | 84 | 1027.9 |
| 20260508122307 | 12 | 352 | 0.0 | 1.6 | 0.00 | 0.00 | 0.00 | 83 | 1027.8 |
| 20260508121805 | 12 | 352 | 0.0 | 1.6 | 0.00 | 0.00 | 0.00 | 82 | 1027.9 |
| 20260508121306 | 12 | 11 | 1.6 | 3.2 | 0.00 | 0.00 | 0.00 | 81 | 1027.9 |
| 20260508120804 | 12 | 46 | 0.0 | 0.0 | 0.00 | 0.00 | 0.00 | 80 | 1027.9 |
| 20260508115805 | 12 | 46 | 0.0 | 1.6 | 0.00 | 0.00 | 0.00 | 80 | 1027.9 |
| 20260508115306 | 12 | 46 | 0.0 | 1.6 | 0.00 | 0.00 | 0.00 | 80 | 1027.9 |
| 20260508114305 | 13 | 97 | 0.0 | 1.6 | 0.00 | 0.00 | 0.00 | 79 | 1027.9 |
| 20260508113306 | 13 | 97 | 0.0 | 1.6 | 0.00 | 0.00 | 0.00 | 78 | 1027.9 |
| 20260508112804 | 13 | 97 | 0.0 | 1.6 | 0.00 | 0.00 | 0.00 | 78 | 1027.9 |
| 20260508112307 | 13 | 97 | 0.0 | 1.6 | 0.00 | 0.00 | 0.00 | 78 | 1027.9 |
| 20260508111806 | 13 | 97 | 0.0 | 3.2 | 0.00 | 0.00 | 0.00 | 77 | 1027.9 |
| 20260508110805 | 14 | 97 | 1.6 | 3.2 | 0.00 | 0.00 | 0.00 | 77 | 1027.9 |
| 20260508110305 | 14 | 22 | 1.6 | 1.6 | 0.00 | 0.00 | 0.00 | 76 | 1027.8 |
| 20260508105805 | 15 | 22 | 0.0 | 0.0 | 0.00 | 0.00 | 0.00 | 74 | 1027.8 |
| 20260508105306 | 15 | 22 | 0.0 | 0.0 | 0.00 | 0.00 | 0.00 | 74 | 1027.8 |
| 20260508104804 | 15 | 22 | 0.0 | 0.0 | 0.00 | 0.00 | 0.00 | 73 | 1027.8 |
| 20260508104304 | 15 | 22 | 1.6 | 3.2 | 0.00 | 0.00 | 0.00 | 72 | 1027.8 |
| 20260508103805 | 16 | 100 | 1.6 | 3.2 | 0.00 | 0.00 | 0.00 | 71 | 1027.8 |
| 20260508103304 | 16 | 101 | 0.0 | 1.6 | 0.00 | 0.00 | 0.00 | 70 | 1027.8 |
| 20260508102804 | 16 | 101 | 0.0 | 0.0 | 0.00 | 0.00 | 0.00 | 70 | 1027.8 |
| 20260508101305 | 17 | 101 | 1.6 | 1.6 | 0.00 | 0.00 | 0.00 | 68 | 1027.7 |
| 20260508100805 | 17 | 101 | 1.6 | 1.6 | 0.00 | 0.00 | 0.00 | 67 | 1027.7 |
| 20260508100306 | 18 | 101 | 1.6 | 3.2 | 0.00 | 0.00 | 0.00 | 65 | 1027.7 |
| 20260508095805 | 18 | 101 | 0.0 | 1.6 | 0.00 | 0.00 | 0.00 | 64 | 1027.4 |
| 20260508095306 | 18 | 101 | 0.0 | 1.6 | 0.00 | 0.00 | 0.00 | 63 | 1027.4 |
| 20260508094806 | 18 | 99 | 1.6 | 3.2 | 0.00 | 0.00 | 0.00 | 62 | 1027.4 |
| 20260508094304 | 18 | 82 | 0.0 | 1.6 | 0.00 | 0.00 | 0.00 | 62 | 1027.4 |
| 20260508093804 | 18 | 82 | 0.0 | 1.6 | 0.00 | 0.00 | 0.00 | 61 | 1027.4 |
| 20260508093305 | 19 | 82 | 0.0 | 1.6 | 0.00 | 0.00 | 0.00 | 61 | 1027.4 |
| 20260508092312 | 19 | 85 | 0.0 | 4.8 | 0.00 | 0.00 | 0.00 | 60 | 1027.4 |
| 20260508091805 | 20 | 103 | 0.0 | 3.2 | 0.00 | 0.00 | 0.00 | 61 | 1027.4 |
| 20260508091305 | 20 | 97 | 1.6 | 3.2 | 0.00 | 0.00 | 0.00 | 59 | 1027.4 |
| 20260508090805 | 20 | 54 | 3.2 | 4.8 | 0.00 | 0.00 | 0.00 | 59 | 1027.4 |
| 20260508085805 | 20 | 75 | 4.8 | 11.3 | 0.00 | 0.00 | 0.00 | 58 | 1027.3 |
| 20260508085307 | 20 | 82 | 1.6 | 9.7 | 0.00 | 0.00 | 0.00 | 58 | 1027.3 |
| 20260508084805 | 20 | 74 | 4.8 | 8.0 | 0.00 | 0.00 | 0.00 | 58 | 1027.3 |
| 20260508084304 | 20 | 39 | 9.7 | 16.1 | 0.00 | 0.00 | 0.00 | 57 | 1027.3 |
| 20260508083805 | 20 | 45 | 8.0 | 12.9 | 0.00 | 0.00 | 0.00 | 58 | 1027.3 |
| 20260508083305 | 20 | 54 | 4.8 | 14.5 | 0.00 | 0.00 | 0.00 | 58 | 1027.3 |
| 20260508081805 | 20 | 62 | 8.0 | 14.5 | 0.00 | 0.00 | 0.00 | 57 | 1027.4 |
| 20260508081305 | 20 | 54 | 9.7 | 14.5 | 0.00 | 0.00 | 0.00 | 57 | 1027.4 |
| 20260508080805 | 20 | 64 | 9.7 | 19.3 | 0.00 | 0.00 | 0.00 | 56 | 1027.4 |
| 20260508080305 | 20 | 27 | 8.0 | 16.1 | 0.00 | 0.00 | 0.00 | 57 | 1027.4 |
| 20260508075804 | 20 | 61 | 9.7 | 19.3 | 0.00 | 0.00 | 0.00 | 57 | 1027.4 |
| 20260508075308 | 21 | 33 | 8.0 | 19.3 | 0.00 | 0.00 | 0.00 | 58 | 1027.4 |
| 20260508074804 | 21 | 39 | 6.4 | 12.9 | 0.00 | 0.00 | 0.00 | 58 | 1027.4 |
| 20260508074305 | 21 | 50 | 4.8 | 19.3 | 0.00 | 0.00 | 0.00 | 57 | 1027.4 |
| 20260508073805 | 21 | 58 | 9.7 | 16.1 | 0.00 | 0.00 | 0.00 | 57 | 1027.4 |
| 20260508073305 | 21 | 90 | 6.4 | 16.1 | 0.00 | 0.00 | 0.00 | 56 | 1027.4 |
| 20260508072805 | 21 | 105 | 4.8 | 19.3 | 0.00 | 0.00 | 0.00 | 58 | 1027.4 |
| 20260508071805 | 20 | 25 | 4.8 | 9.7 | 0.00 | 0.00 | 0.00 | 59 | 1027.4 |
| 20260508071305 | 20 | 7 | 1.6 | 19.3 | 0.00 | 0.00 | 0.00 | 60 | 1027.4 |
| 20260508070805 | 20 | 34 | 8.0 | 16.1 | 0.00 | 0.00 | 0.00 | 60 | 1027.4 |
| 20260508065805 | 20 | 27 | 9.7 | 16.1 | 0.00 | 0.00 | 0.00 | 60 | 1027.8 |
| 20260508064804 | 21 | 19 | 9.7 | 16.1 | 0.00 | 0.00 | 0.00 | 60 | 1027.8 |
| 20260508063804 | 21 | 54 | 8.0 | 16.1 | 0.00 | 0.00 | 0.00 | 59 | 1027.8 |
| 20260508063305 | 20 | 35 | 4.8 | 19.3 | 0.00 | 0.00 | 0.00 | 61 | 1027.8 |
| 20260508062805 | 20 | 59 | 8.0 | 14.5 | 0.00 | 0.00 | 0.00 | 62 | 1027.8 |
| 20260508062306 | 20 | 35 | 4.8 | 8.0 | 0.00 | 0.00 | 0.00 | 62 | 1027.8 |
| 20260508061804 | 20 | 45 | 4.8 | 16.1 | 0.00 | 0.00 | 0.00 | 61 | 1027.8 |
| 20260508060804 | 21 | 74 | 6.4 | 16.1 | 0.00 | 0.00 | 0.00 | 60 | 1027.8 |
| 20260508060305 | 20 | 59 | 14.5 | 19.3 | 0.00 | 0.00 | 0.00 | 60 | 1028.2 |
| 20260508055306 | 21 | 16 | 6.4 | 12.9 | 0.00 | 0.00 | 0.00 | 60 | 1028.2 |
| 20260508054804 | 20 | 108 | 6.4 | 16.1 | 0.00 | 0.00 | 0.00 | 65 | 1028.2 |
| 20260508054304 | 19 | 48 | 6.4 | 11.3 | 0.00 | 0.00 | 0.00 | 65 | 1028.2 |
| 20260508053805 | 19 | 59 | 6.4 | 12.9 | 0.00 | 0.00 | 0.00 | 66 | 1028.2 |
| 20260508053305 | 20 | 67 | 8.0 | 16.1 | 0.00 | 0.00 | 0.00 | 64 | 1028.5 |
| 20260508052804 | 20 | 42 | 8.0 | 12.9 | 0.00 | 0.00 | 0.00 | 63 | 1028.5 |
| 20260508052307 | 20 | 64 | 6.4 | 12.9 | 0.00 | 0.00 | 0.00 | 63 | 1028.5 |
| 20260508051805 | 20 | 42 | 11.3 | 19.3 | 0.00 | 0.00 | 0.00 | 61 | 1028.5 |
| 20260508051304 | 21 | 67 | 4.8 | 12.9 | 0.00 | 0.00 | 0.00 | 60 | 1028.5 |
| 20260508050805 | 21 | 28 | 8.0 | 14.5 | 0.00 | 0.00 | 0.00 | 61 | 1029.3 |
| 20260508050304 | 21 | 73 | 4.8 | 12.9 | 0.00 | 0.00 | 0.00 | 59 | 1029.3 |
| 20260508045805 | 21 | 56 | 3.2 | 8.0 | 0.00 | 0.00 | 0.00 | 59 | 1029.3 |
| 20260508045307 | 21 | 61 | 4.8 | 14.5 | 0.00 | 0.00 | 0.00 | 63 | 1029.3 |
| 20260508044805 | 21 | 64 | 3.2 | 11.3 | 0.00 | 0.00 | 0.00 | 63 | 1029.3 |
| 20260508044304 | 20 | 61 | 4.8 | 16.1 | 0.00 | 0.00 | 0.00 | 63 | 1029.3 |
| 20260508043304 | 20 | 60 | 9.7 | 19.3 | 0.00 | 0.00 | 0.00 | 63 | 1029.4 |
| 20260508042805 | 20 | 27 | 8.0 | 16.1 | 0.00 | 0.00 | 0.00 | 62 | 1029.4 |
| 20260508042307 | 20 | 347 | 8.0 | 16.1 | 0.00 | 0.00 | 0.00 | 63 | 1029.5 |
| 20260508041304 | 20 | 22 | 4.8 | 8.0 | 0.00 | 0.00 | 0.00 | 63 | 1030.2 |
| 20260508040804 | 20 | 3 | 9.7 | 14.5 | 0.00 | 0.00 | 0.00 | 62 | 1030.2 |
| 20260508040305 | 20 | 344 | 6.4 | 14.5 | 0.00 | 0.00 | 0.00 | 64 | 1030.2 |
| 20260508035805 | 20 | 21 | 8.0 | 12.9 | 0.00 | 0.00 | 0.00 | 66 | 1030.2 |
| 20260508035306 | 20 | 11 | 8.0 | 11.3 | 0.00 | 0.00 | 0.00 | 65 | 1030.6 |
| 20260508034804 | 19 | 53 | 14.5 | 20.9 | 0.00 | 0.00 | 0.00 | 65 | 1030.6 |
| 20260508034305 | 19 | 56 | 9.7 | 19.3 | 0.00 | 0.00 | 0.00 | 66 | 1030.6 |
| 20260508033804 | 19 | 35 | 9.7 | 20.9 | 0.00 | 0.00 | 0.00 | 66 | 1030.6 |
| 20260508033304 | 19 | 66 | 11.3 | 20.9 | 0.00 | 0.00 | 0.00 | 66 | 1030.6 |
| 20260508032805 | 19 | 62 | 8.0 | 20.9 | 0.00 | 0.00 | 0.00 | 65 | 1030.7 |
| 20260508031805 | 18 | 45 | 11.3 | 22.5 | 0.00 | 0.00 | 0.00 | 67 | 1030.9 |
| 20260508031305 | 18 | 51 | 11.3 | 19.3 | 0.00 | 0.00 | 0.00 | 67 | 1030.9 |
| 20260508030804 | 18 | 53 | 9.7 | 25.7 | 0.00 | 0.00 | 0.00 | 68 | 1030.9 |
| 20260508030305 | 18 | 6 | 11.3 | 25.7 | 0.00 | 0.00 | 0.00 | 68 | 1030.9 |
| 20260508025804 | 18 | 29 | 11.3 | 20.9 | 0.00 | 0.00 | 0.00 | 69 | 1030.9 |
| 20260508025306 | 18 | 27 | 9.7 | 19.3 | 0.00 | 0.00 | 0.00 | 70 | 1031.0 |